World > North America > United States > New Jersey

West Milford Lakes, New Jersey Regional Weather

Lat: 41.09N, Lon: 74.37W
Wx Zone: NJZ002
Feedback

West Milford Lakes, NJ Regional Weather

Expires:201909222100;;192647
ASUS41 KPHI 222012
RWRPHI

REGIONAL WEATHER ROUNDUP
NATIONAL WEATHER SERVICE MOUNT HOLLY NJ
400 PM EDT SUN SEP 22 2019

NOTE:  "FAIR" INDICATES FEW OR NO CLOUDS BELOW 12,000 FEET WITH NO
SIGNIFICANT WEATHER AND/OR OBSTRUCTIONS TO VISIBILITY.

 * = STATION DOES NOT REPORT PRECIPITATION (E.G. RAIN, SNOW, ETC.) 
        OR FOG.


NJZ001>014-222100-
NORTHERN NEW JERSEY
  
CITY           SKY/WX    TMP DP  RH WIND       PRES   REMARKS
SUSSEX         FAIR      87  64  46 SW8       30.04F                  
ANDOVER*         N/A     86  65  49 SW7       30.06F                  
MORRISTOWN     MOSUNNY   88  66  48 S8        30.05F HX  90           
NEWARK         PTSUNNY   86  63  45 SE12      30.04F                  
TETERBORO      FAIR      88  63  43 S13       30.03F                  
CALDWELL       FAIR      89  63  41 VRB7      30.05F HX  90           
SOMERVILLE     PTSUNNY   88  65  46 S6        30.03F HX  90           
ALLAIRE*       FAIR      82  64  54 SE10      30.08F                  
TOMS RIVER*    FAIR      85  69  58 S12       30.08F                  

$$

SKY/WX - Weather  TMP - Temperature  DP - Dew Point  RH - Relative Humidity
WIND - Wind Direction/Speed PRES - Barometric Pressure VSB - Visibility
WCI - Wind Chill Index E13G22 Wind - East Wind 13 mph/Gusts of 22 mph